Total_Precipitation_Accumulation
1.15 1.22 1.22 1.15 1.11 1.44 1.81 1.98 1.83 2.05 2.13 1.85 1.59 1.44 1.34 1.29 1.35 1.46 1.43 1.62 1.55 1.42 1.49 1.56 1.43 1.25 1.14 0.98 0.84 0.72 0.63 0.63 0.59 0.48 0.38 0.33 0.31 0.31 0.31 0.33 0.32 0.28 0.25
1.70 1.71 1.63 1.53 1.35 1.42 1.71 1.93 1.96 2.17 2.06 1.97 1.46 1.40 1.35 1.41 1.50 1.48 1.40 1.85 1.77 1.51 1.43 1.43 1.43 1.35 1.24 1.18 1.05 0.85 0.69 0.63 0.59 0.48 0.40 0.37 0.33 0.30 0.29 0.33 0.36 0.32 0.23
2.15 2.06 1.85 1.63 1.58 1.65 1.75 1.75 1.76 1.89 1.74 1.65 1.44 1.53 1.50 1.35 1.23 1.23 1.31 1.49 1.49 1.32 1.19 1.13 1.20 1.27 1.38 1.40 1.32 1.22 0.96 0.71 0.58 0.46 0.39 0.34 0.29 0.26 0.27 0.30 0.36 0.36 0.28
2.16 2.11 1.81 1.53 1.63 1.73 1.70 1.66 1.56 1.66 1.62 1.63 1.59 1.52 1.54 1.39 1.14 1.09 1.15 1.15 1.17 1.04 1.07 1.03 1.01 1.09 1.34 1.58 1.63 1.61 1.36 0.95 0.68 0.53 0.44 0.35 0.29 0.24 0.23 0.27 0.33 0.35 0.28
1.96 2.07 1.77 1.62 1.68 1.62 1.51 1.44 1.60 1.77 1.68 1.66 1.63 1.48 1.27 1.11 0.93 0.82 0.81 0.73 0.81 0.88 0.96 0.99 0.93 0.93 1.20 1.60 1.88 1.98 1.81 1.39 0.95 0.67 0.57 0.48 0.38 0.29 0.24 0.23 0.25 0.26 0.24
1.65 1.75 1.55 1.49 1.60 1.55 1.41 1.47 1.61 1.70 1.50 1.56 1.50 1.22 1.07 0.87 0.80 0.68 0.56 0.53 0.50 0.50 0.60 0.83 1.00 0.82 0.96 1.26 1.59 1.85 1.98 1.78 1.35 1.00 0.78 0.63 0.53 0.40 0.27 0.21 0.19 0.20 0.20
1.19 1.35 1.22 1.30 1.37 1.31 1.24 1.25 1.33 1.36 1.18 1.44 1.52 1.06 0.77 0.67 0.60 0.51 0.51 0.49 0.41 0.45 0.54 0.74 0.88 0.89 0.85 0.87 1.08 1.30 1.72 1.91 1.71 1.37 1.07 0.84 0.69 0.56 0.37 0.26 0.21 0.19 0.19
1.06 1.02 1.01 1.03 1.09 1.12 1.03 1.00 1.12 1.10 0.93 1.20 1.30 1.14 0.75 0.56 0.47 0.39 0.41 0.39 0.41 0.51 0.54 0.63 0.81 0.85 0.79 0.95 0.87 0.79 1.12 1.51 1.67 1.60 1.36 1.05 0.85 0.70 0.52 0.40 0.31 0.24 0.21
1.19 1.14 1.04 0.96 0.93 0.96 0.96 0.94 1.02 1.02 0.91 0.95 1.08 1.23 0.95 0.61 0.47 0.33 0.35 0.42 0.53 0.63 0.61 0.66 0.71 0.83 0.80 0.93 0.98 0.95 0.80 1.02 1.39 1.74 1.68 1.35 0.98 0.72 0.56 0.52 0.48 0.35 0.26
1.37 1.24 1.12 0.95 0.82 0.80 0.84 0.78 0.84 0.96 0.97 0.86 0.86 0.94 0.95 0.96 0.88 0.52 0.32 0.35 0.53 0.62 0.63 0.63 0.69 0.80 0.89 0.98 1.10 1.32 1.12 0.96 1.12 1.56 1.75 1.61 1.26 0.92 0.73 0.68 0.79 0.71 0.45
1.11 0.96 0.90 0.84 0.75 0.68 0.68 0.72 0.83 0.92 0.94 0.86 0.86 0.85 0.90 1.03 1.04 0.90 0.57 0.49 0.55 0.53 0.52 0.56 0.66 0.80 0.92 1.10 1.35 1.50 1.64 1.38 1.19 1.22 1.37 1.43 1.39 1.18 0.97 0.98 1.29 1.41 1.11
0.69 0.67 0.65 0.68 0.67 0.66 0.65 0.66 0.72 0.81 0.90 0.95 0.96 1.01 1.05 1.06 1.12 1.20 0.97 0.80 0.74 0.65 0.62 0.70 0.82 0.99 1.10 1.23 1.31 1.46 1.48 1.49 1.42 1.31 1.28 1.25 1.26 1.24 1.21 1.24 1.52 1.75 1.79
0.48 0.52 0.56 0.61 0.61 0.66 0.72 0.78 0.79 0.79 0.87 0.98 1.02 1.10 1.19 1.18 1.24 1.34 1.27 1.08 0.98 0.96 0.97 0.97 0.98 1.13 1.13 1.23 1.36 1.27 1.05 1.10 1.10 1.09 1.07 1.03 1.02 1.09 1.14 1.15 1.33 1.58 1.82
0.47 0.50 0.58 0.64 0.64 0.66 0.67 0.77 0.82 0.88 0.96 0.99 0.99 1.16 1.24 1.19 1.30 1.44 1.46 1.43 1.29 1.29 1.36 1.36 1.16 1.07 1.08 1.15 1.26 1.16 1.06 0.93 0.72 0.64 0.63 0.65 0.68 0.76 0.86 0.98 1.09 1.17 1.30
0.50 0.55 0.63 0.72 0.75 0.76 0.78 0.83 0.84 0.94 1.12 1.19 1.17 1.22 1.28 1.26 1.31 1.43 1.55 1.58 1.56 1.51 1.51 1.50 1.25 1.09 0.99 1.00 1.09 1.14 1.25 1.03 0.67 0.50 0.44 0.43 0.46 0.50 0.54 0.64 0.75 0.86 0.98
0.56 0.60 0.65 0.68 0.73 0.75 0.79 0.84 0.89 0.99 1.15 1.22 1.30 1.39 1.39 1.33 1.38 1.45 1.50 1.61 1.71 1.72 1.62 1.48 1.30 1.18 1.10 0.95 0.97 0.94 1.00 0.87 0.63 0.52 0.45 0.41 0.39 0.39 0.42 0.48 0.54 0.62 0.71
0.56 0.63 0.60 0.54 0.51 0.57 0.70 0.85 0.92 1.00 1.09 1.13 1.20 1.22 1.21 1.24 1.29 1.25 1.33 1.46 1.62 1.75 1.62 1.53 1.45 1.40 1.32 1.22 1.09 0.89 0.76 0.67 0.60 0.56 0.48 0.43 0.41 0.40 0.39 0.38 0.42 0.48 0.55
0.53 0.59 0.56 0.51 0.49 0.56 0.69 0.84 0.99 1.19 1.33 1.29 1.21 1.13 1.06 1.12 1.21 1.22 1.32 1.35 1.41 1.61 1.61 1.60 1.59 1.61 1.50 1.32 1.22 1.08 0.89 0.76 0.73 0.66 0.55 0.47 0.41 0.40 0.38 0.36 0.40 0.43 0.51
0.53 0.54 0.55 0.61 0.71 0.80 0.91 1.03 1.10 1.24 1.29 1.20 1.15 1.09 1.01 1.01 1.05 1.14 1.24 1.30 1.30 1.37 1.50 1.54 1.58 1.65 1.63 1.43 1.24 1.13 1.03 1.04 0.96 0.78 0.60 0.50 0.44 0.40 0.39 0.36 0.40 0.47 0.59
0.39 0.49 0.62 0.80 0.91 0.98 1.01 1.07 1.07 1.04 1.04 0.96 0.90 0.85 0.89 1.00 1.05 1.04 1.02 1.07 1.12 1.22 1.31 1.38 1.48 1.60 1.65 1.58 1.35 1.23 1.22 1.17 1.10 0.84 0.69 0.57 0.48 0.40 0.36 0.32 0.32 0.42 0.55
0.33 0.47 0.63 0.74 0.73 0.76 0.83 0.90 0.92 0.89 0.85 0.79 0.71 0.57 0.58 0.75 0.88 0.91 0.85 0.89 0.93 1.01 1.07 1.17 1.29 1.44 1.54 1.61 1.42 1.24 1.21 1.28 1.25 1.12 0.96 0.77 0.62 0.53 0.50 0.46 0.39 0.37 0.39
0.33 0.42 0.51 0.52 0.49 0.38 0.36 0.39 0.48 0.56 0.62 0.62 0.55 0.51 0.50 0.52 0.55 0.57 0.61 0.66 0.72 0.80 0.92 1.08 1.21 1.30 1.33 1.41 1.49 1.46 1.41 1.37 1.39 1.36 1.34 1.26 0.98 0.88 0.84 0.79 0.61 0.39 0.29
0.35 0.41 0.41 0.43 0.45 0.45 0.28 0.20 0.21 0.32 0.41 0.45 0.45 0.49 0.40 0.36 0.39 0.39 0.40 0.38 0.41 0.47 0.60 0.81 1.03 1.13 1.25 1.26 1.45 1.51 1.52 1.62 1.66 1.65 1.59 1.66 1.38 1.11 0.96 0.87 0.74 0.51 0.36
0.43 0.47 0.44 0.45 0.50 0.47 0.31 0.21 0.17 0.20 0.31 0.37 0.41 0.43 0.43 0.45 0.45 0.45 0.43 0.42 0.38 0.36 0.38 0.45 0.67 0.92 1.12 1.33 1.38 1.47 1.53 1.61 1.66 1.56 1.48 1.58 1.52 1.38 1.16 0.87 0.74 0.62 0.49
0.52 0.49 0.49 0.52 0.56 0.56 0.39 0.23 0.18 0.26 0.39 0.42 0.45 0.45 0.45 0.47 0.45 0.34 0.38 0.41 0.42 0.43 0.35 0.35 0.45 0.68 0.88 0.99 1.19 1.38 1.50 1.42 1.39 1.23 1.04 1.10 1.23 1.29 1.33 1.17 0.87 0.77 0.62
0.66 0.60 0.55 0.59 0.63 0.71 0.59 0.32 0.23 0.35 0.53 0.58 0.62 0.59 0.47 0.41 0.36 0.26 0.32 0.42 0.42 0.42 0.45 0.41 0.36 0.44 0.59 0.74 0.80 0.92 1.11 1.20 1.11 1.08 0.90 0.76 0.75 0.84 0.98 0.98 0.84 0.78 0.79